User: anonymous   Login
Location: Unspecified
(0.0000°N, 0.0000°E)
Time: 09:33:23
(UTC+00:00)
Language:

MOS 1-B - Orbit

View from above orbital plane
View from above orbital plane
View from above satellite
View from above satellite

Ground track
Ground track

The orbit data is extracted from the following two-line orbital elements,

1 20478U 90013A   17295.88769354 -.00000013 +00000-0 +24203-4 0  9998
2 20478 099.3109 260.7575 0006273 110.6058 249.5777 13.95435990331348
Epoch (UTC): 22 October 2017 21:18:16
Eccentricity: 0.0006273
inclination: 99.3109°
perigee height: 905 km
apogee height: 914 km
right ascension of ascending node: 260.7575°
argument of perigee: 110.6058°
revolutions per day: 13.95435990
mean anomaly at epoch: 249.5777°
orbit number at epoch: 33134

The dashed part of the orbit path shows where the satellite is in the earth's shadow,  

DLR